,,,PA_Meas_PMT16A,,PR_Meas_QMR101_102,,RH_Meas_QMH101,,SR_Meas_QMS101,,TA_Meas_QMH101,,GenWind,,GenWind,
date,time,status,PA,status,PR,status,RH,status,SR,status,TA,status,DirAvg,status,SpdAvg,
2009-06-01, 00:00:04,VALID,1004.5,VALID,0,VALID,89.0901,VALID,0,VALID,25.6895,VALID,23,VALID,0.463672,
2009-06-01, 00:01:04,VALID,1004.48,VALID,0,VALID,89.0824,VALID,0,VALID,25.6292,VALID,26,VALID,1.25859,
2009-06-01, 00:02:04,VALID,1004.5,VALID,0,VALID,89.0748,VALID,0,VALID,25.6506,VALID,75,VALID,0.741797,
2009-06-01, 00:03:04,VALID,1004.5,VALID,0,VALID,89.029,VALID,0,VALID,25.6486,VALID,56,VALID,1.06953,
2009-06-01, 00:04:04,VALID,1004.5,VALID,0,VALID,88.8917,VALID,0.100563,VALID,25.6895,VALID,54,VALID,2.08086,
2009-06-01, 00:05:04,VALID,1004.53,VALID,0,VALID,88.6705,VALID,0,VALID,25.7071,VALID,12,VALID,1.25078,
2009-06-01, 00:06:04,VALID,1004.52,VALID,0,VALID,88.5332,VALID,0.100563,VALID,25.7265,VALID,19,VALID,0.947656,
2009-06-01, 00:07:04,VALID,1004.52,VALID,0,VALID,88.3043,VALID,0,VALID,25.748,VALID,55,VALID,0.748828,
2009-06-01, 00:08:04,VALID,1004.54,VALID,0,VALID,88.2509,VALID,0,VALID,25.7265,VALID,27,VALID,1.07969,
2009-06-01, 00:09:04,VALID,1004.53,VALID,0,VALID,88.1136,VALID,0,VALID,25.6876,VALID,26,VALID,1.54414,
2009-06-01, 00:10:04,VALID,1004.53,VALID,0,VALID,87.9762,VALID,0.100563,VALID,25.7285,VALID,21,VALID,1.41484,
2009-06-01, 00:11:04,VALID,1004.56,VALID,0,VALID,87.9457,VALID,0,VALID,25.709,VALID,18,VALID,1.52305,
2009-06-01, 00:12:04,VALID,1004.57,VALID,0,VALID,88.0144,VALID,0,VALID,25.6876,VALID,21,VALID,1.70859,
2009-06-01, 00:13:04,VALID,1004.55,VALID,0,VALID,88.1593,VALID,0,VALID,25.709,VALID,25,VALID,1.13437,
2009-06-01, 00:14:04,VALID,1004.59,VALID,0,VALID,88.167,VALID,0,VALID,25.6486,VALID,24,VALID,1.22969,
2009-06-01, 00:15:04,VALID,1004.59,VALID,0,VALID,88.495,VALID,0,VALID,25.6506,VALID,27,VALID,1.53281,
2009-06-01, 00:16:04,VALID,1004.58,VALID,0,VALID,88.6705,VALID,0,VALID,25.5921,VALID,13,VALID,0.840625,
2009-06-01, 00:17:04,VALID,1004.55,VALID,0,VALID,88.6476,VALID,0,VALID,25.5532,VALID,20,VALID,1.48125,
2009-06-01, 00:18:04,VALID,1004.53,VALID,0,VALID,88.4416,VALID,0,VALID,25.5123,VALID,38,VALID,0.892187,
2009-06-01, 00:19:04,VALID,1004.51,VALID,0,VALID,88.4798,VALID,0,VALID,25.4948,VALID,85,VALID,0.306641,
2009-06-01, 00:20:04,VALID,1004.5,VALID,0,VALID,88.6705,VALID,0,VALID,25.4948,VALID,53,VALID,0.423828,
2009-06-01, 00:21:04,VALID,1004.5,VALID,0,VALID,88.3501,VALID,0,VALID,25.4149,VALID,33,VALID,1.29805,
2009-06-01, 00:22:04,VALID,1004.44,VALID,0,VALID,88.0983,VALID,0,VALID,25.3974,VALID,45,VALID,0.607813,
2009-06-01, 00:23:04,VALID,1004.44,VALID,0,VALID,87.816,VALID,0.100563,VALID,25.4169,VALID,53,VALID,0.619141,
2009-06-01, 00:24:04,VALID,1004.38,VALID,0,VALID,87.7855,VALID,0,VALID,25.3955,VALID,4,VALID,0.723047,
2009-06-01, 00:25:04,VALID,1004.37,VALID,0,VALID,87.8771,VALID,0,VALID,25.3779,VALID,30,VALID,0.8125,
2009-06-01, 00:26:04,VALID,1004.33,VALID,0,VALID,88.0068,VALID,0,VALID,25.339,VALID,26,VALID,0.774609,
2009-06-01, 00:27:04,VALID,1004.33,VALID,0,VALID,88.3806,VALID,0,VALID,25.339,VALID,20,VALID,0.355469,
2009-06-01, 00:28:04,VALID,1004.29,VALID,0,VALID,88.7162,VALID,0.100563,VALID,25.2786,VALID,20,VALID,0.498047,
2009-06-01, 00:29:04,VALID,1004.28,VALID,0,VALID,88.7773,VALID,0.100563,VALID,25.2202,VALID,11,VALID,0.625391,
2009-06-01, 00:30:04,VALID,1004.29,VALID,0,VALID,89.0748,VALID,0,VALID,25.2027,VALID,11,VALID,0.423828,
2009-06-01, 00:31:04,VALID,1004.28,VALID,0,VALID,89.3647,VALID,0.100563,VALID,25.1423,VALID,11,VALID,0.390234,
2009-06-01, 00:32:04,VALID,1004.32,VALID,0,VALID,89.3418,VALID,0,VALID,25.1053,VALID,26,VALID,0.422656,
2009-06-01, 00:33:04,VALID,1004.37,VALID,0,VALID,89.3723,VALID,0.100563,VALID,25.0663,VALID,26,VALID,0.108203,
2009-06-01, 00:34:04,VALID,1004.39,VALID,0,VALID,89.235,VALID,0,VALID,25.0469,VALID,26,VALID,0.279297,
2009-06-01, 00:35:04,VALID,1004.39,VALID,0,VALID,89.2808,VALID,0,VALID,25.0255,VALID,30,VALID,0,
2009-06-01, 00:36:04,VALID,1004.39,VALID,0,VALID,89.2579,VALID,0,VALID,25.0274,VALID,49,VALID,0.326172,
2009-06-01, 00:37:04,VALID,1004.41,VALID,0,VALID,89.2579,VALID,0.100563,VALID,25.006,VALID,49,VALID,0.294922,
2009-06-01, 00:38:04,VALID,1004.41,VALID,0,VALID,89.1053,VALID,0.100563,VALID,24.9866,VALID,49,VALID,0.341016,
2009-06-01, 00:39:04,VALID,1004.41,VALID,0,VALID,88.5637,VALID,0,VALID,24.9866,VALID,76,VALID,0.754297,
2009-06-01, 00:40:04,VALID,1004.41,VALID,0,VALID,88.0907,VALID,0,VALID,25.006,VALID,99,VALID,0.505078,
2009-06-01, 00:41:04,VALID,1004.42,VALID,0,VALID,88.0296,VALID,0,VALID,25.0469,VALID,94,VALID,0.471484,
2009-06-01, 00:42:04,VALID,1004.43,VALID,0,VALID,88.0983,VALID,0,VALID,25.0274,VALID,94,VALID,0.274609,
2009-06-01, 00:43:04,VALID,1004.43,VALID,0,VALID,88.1975,VALID,0,VALID,25.006,VALID,53,VALID,0.336719,
2009-06-01, 00:44:04,VALID,1004.48,VALID,0,VALID,89.0901,VALID,0.100563,VALID,25.006,VALID,45,VALID,0.303906,
2009-06-01, 00:45:04,VALID,1004.48,VALID,0,VALID,89.6012,VALID,0,VALID,24.9885,VALID,34,VALID,0.485938,
2009-06-01, 00:46:04,VALID,1004.49,VALID,0,VALID,89.7309,VALID,0,VALID,24.9087,VALID,19,VALID,0.729297,
2009-06-01, 00:47:04,VALID,1004.52,VALID,0,VALID,89.708,VALID,0,VALID,24.8716,VALID,26,VALID,0.557813,
2009-06-01, 00:48:04,VALID,1004.55,VALID,0,VALID,89.8148,VALID,0.100563,VALID,24.8911,VALID,25,VALID,0.417188,
2009-06-01, 00:49:04,VALID,1004.58,VALID,0,VALID,89.3342,VALID,0.100563,VALID,24.8716,VALID,23,VALID,0.574219,
2009-06-01, 00:50:04,VALID,1004.56,VALID,0,VALID,88.9985,VALID,0.100563,VALID,24.8697,VALID,66,VALID,0.533203,
2009-06-01, 00:51:04,VALID,1004.57,VALID,0,VALID,88.7239,VALID,0,VALID,24.93,VALID,55,VALID,0.442578,
2009-06-01, 00:52:04,VALID,1004.55,VALID,0,VALID,88.0068,VALID,0.100563,VALID,24.9866,VALID,77,VALID,0.464453,
2009-06-01, 00:53:04,VALID,1004.51,VALID,0,VALID,87.8847,VALID,0.100563,VALID,25.0274,VALID,77,VALID,0.196094,
2009-06-01, 00:54:04,VALID,1004.5,VALID,0,VALID,87.2362,VALID,0,VALID,25.0663,VALID,92,VALID,0.607031,
2009-06-01, 00:55:04,VALID,1004.5,VALID,0,VALID,87.015,VALID,0,VALID,25.0644,VALID,93,VALID,0.369531,
2009-06-01, 00:56:04,VALID,1004.48,VALID,0,VALID,86.7633,VALID,0,VALID,25.1034,VALID,93,VALID,0.328125,
2009-06-01, 00:57:04,VALID,1004.47,VALID,0,VALID,86.4123,VALID,0,VALID,25.1053,VALID,87,VALID,0.648828,
2009-06-01, 00:58:04,VALID,1004.51,VALID,0,VALID,85.9165,VALID,0,VALID,25.1656,VALID,83,VALID,0.599219,
2009-06-01, 00:59:04,VALID,1004.5,VALID,0,VALID,85.8325,VALID,0,VALID,25.1851,VALID,120,VALID,1.01641,
2009-06-01, 01:00:04,VALID,1004.52,VALID,0,VALID,85.7562,VALID,0,VALID,25.224,VALID,136,VALID,1.10664,
2009-06-01, 01:01:04,VALID,1004.61,VALID,0,VALID,85.3367,VALID,0,VALID,25.2825,VALID,136,VALID,1.48906,
2009-06-01, 01:02:04,VALID,1004.74,VALID,0,VALID,85.68,VALID,0,VALID,25.3019,VALID,154,VALID,1.78906,
2009-06-01, 01:03:04,VALID,1004.75,VALID,0,VALID,85.9165,VALID,0,VALID,25.3019,VALID,143,VALID,2.57578,
2009-06-01, 01:04:04,VALID,1004.78,VALID,0,VALID,86.6107,VALID,0,VALID,25.3019,VALID,140,VALID,2.40937,
2009-06-01, 01:05:04,VALID,1004.79,VALID,0,VALID,87.1066,VALID,0,VALID,25.2435,VALID,125,VALID,2.77031,
2009-06-01, 01:06:04,VALID,1004.86,VALID,0,VALID,87.2896,VALID,0,VALID,25.1637,VALID,114,VALID,1.91484,
2009-06-01, 01:07:04,VALID,1004.85,VALID,0,VALID,87.1676,VALID,0,VALID,25.0274,VALID,162,VALID,2.01992,
2009-06-01, 01:08:04,VALID,1004.74,VALID,0,VALID,85.8173,VALID,0,VALID,24.6983,VALID,103,VALID,3.83398,
2009-06-01, 01:09:04,VALID,1004.84,VALID,0.5,VALID,87.0455,VALID,0,VALID,24.2681,VALID,122,VALID,3.73398,
2009-06-01, 01:10:04,VALID,1004.91,VALID,1,VALID,88.3958,VALID,0,VALID,23.8009,VALID,129,VALID,4.99375,
2009-06-01, 01:11:04,VALID,1004.81,VALID,2,VALID,89.8911,VALID,0,VALID,23.4311,VALID,139,VALID,2.125,
2009-06-01, 01:12:04,VALID,1004.73,VALID,1,VALID,90.9515,VALID,0.100563,VALID,23.1957,VALID,112,VALID,2.52891,
2009-06-01, 01:13:04,VALID,1004.71,VALID,0.5,VALID,91.8975,VALID,0,VALID,23.0595,VALID,133,VALID,2.85195,
2009-06-01, 01:14:04,VALID,1004.62,VALID,0,VALID,92.5383,VALID,0,VALID,22.9622,VALID,137,VALID,2.65898,
2009-06-01, 01:15:04,VALID,1004.6,VALID,0,VALID,92.8053,VALID,0.100563,VALID,22.9039,VALID,138,VALID,4.63789,
2009-06-01, 01:16:04,VALID,1004.54,VALID,0.5,VALID,92.9961,VALID,0,VALID,22.9251,VALID,135,VALID,4.31719,
2009-06-01, 01:17:04,VALID,1004.5,VALID,0,VALID,92.8511,VALID,0.100563,VALID,22.8455,VALID,125,VALID,2.33203,
2009-06-01, 01:18:04,VALID,1004.46,VALID,0,VALID,93.0342,VALID,0.100563,VALID,22.8048,VALID,140,VALID,1.81602,
2009-06-01, 01:19:04,VALID,1004.4,VALID,0,VALID,93.2631,VALID,0.100563,VALID,22.8066,VALID,121,VALID,0.784766,
2009-06-01, 01:20:04,VALID,1004.35,VALID,0,VALID,93.3851,VALID,0,VALID,22.727,VALID,111,VALID,2.10156,
2009-06-01, 01:21:04,VALID,1004.37,VALID,0,VALID,93.4996,VALID,0.100563,VALID,22.7888,VALID,135,VALID,1.37773,
2009-06-01, 01:22:04,VALID,1004.33,VALID,0,VALID,93.7284,VALID,0,VALID,22.7888,VALID,96,VALID,1.34922,
2009-06-01, 01:23:04,VALID,1004.32,VALID,0,VALID,93.8886,VALID,0,VALID,22.7871,VALID,108,VALID,1.17969,
2009-06-01, 01:24:04,VALID,1004.32,VALID,0,VALID,93.9573,VALID,0.100563,VALID,22.7871,VALID,110,VALID,1.55469,
2009-06-01, 01:25:04,VALID,1004.29,VALID,0,VALID,94.0641,VALID,0.100563,VALID,22.7854,VALID,134,VALID,1.42617,
2009-06-01, 01:26:04,VALID,1004.28,VALID,0,VALID,94.1633,VALID,0.100563,VALID,22.8243,VALID,111,VALID,1.78086,
2009-06-01, 01:27:04,VALID,1004.26,VALID,0,VALID,94.2777,VALID,0.100563,VALID,22.9056,VALID,116,VALID,0.593359,
2009-06-01, 01:28:04,VALID,1004.29,VALID,0,VALID,94.3464,VALID,0,VALID,22.8844,VALID,106,VALID,1.15078,
2009-06-01, 01:29:04,VALID,1004.26,VALID,0.5,VALID,94.3845,VALID,0.100563,VALID,22.9021,VALID,113,VALID,0.601563,
2009-06-01, 01:30:04,VALID,1004.28,VALID,0,VALID,94.4608,VALID,0.100563,VALID,22.9233,VALID,72,VALID,0.985547,
2009-06-01, 01:31:04,VALID,1004.31,VALID,0,VALID,94.4761,VALID,0.100563,VALID,22.9428,VALID,56,VALID,0.725,
2009-06-01, 01:32:04,VALID,1004.18,VALID,0.5,VALID,94.5218,VALID,0.100563,VALID,22.9428,VALID,43,VALID,0.767187,
2009-06-01, 01:33:04,VALID,1004.16,VALID,0,VALID,94.6363,VALID,0.100563,VALID,23.0401,VALID,23,VALID,2.11992,
2009-06-01, 01:34:04,VALID,1004.17,VALID,0.5,VALID,94.6744,VALID,0.100563,VALID,23.079,VALID,20,VALID,1.94805,
2009-06-01, 01:35:04,VALID,1004.09,VALID,0,VALID,94.7202,VALID,0.100563,VALID,23.079,VALID,34,VALID,1.93242,
2009-06-01, 01:36:04,VALID,1004.05,VALID,0,VALID,94.7049,VALID,0.100563,VALID,23.1162,VALID,31,VALID,1.69414,
2009-06-01, 01:37:04,VALID,1004.05,VALID,0,VALID,94.7431,VALID,0,VALID,23.1568,VALID,26,VALID,1.24219,
2009-06-01, 01:38:04,VALID,1003.97,VALID,0.5,VALID,94.7812,VALID,0,VALID,23.2364,VALID,7,VALID,1.41641,
2009-06-01, 01:39:04,VALID,1003.95,VALID,0,VALID,94.8194,VALID,0,VALID,23.2948,VALID,43,VALID,1.09531,
2009-06-01, 01:40:04,VALID,1003.88,VALID,0,VALID,94.8499,VALID,0,VALID,23.3532,VALID,27,VALID,0.857031,
2009-06-01, 01:41:04,VALID,1003.86,VALID,0,VALID,94.8804,VALID,0,VALID,23.4098,VALID,14,VALID,1.16992,
2009-06-01, 01:42:04,VALID,1003.86,VALID,0,VALID,94.888,VALID,0,VALID,23.47,VALID,16,VALID,0.785547,
2009-06-01, 01:43:04,VALID,1003.89,VALID,0,VALID,94.9033,VALID,0,VALID,23.447,VALID,33,VALID,0.955469,
2009-06-01, 01:44:04,VALID,1003.86,VALID,0,VALID,94.8804,VALID,0,VALID,23.5284,VALID,15,VALID,0.934766,
2009-06-01, 01:45:04,VALID,1003.93,VALID,0,VALID,94.8422,VALID,0,VALID,23.5284,VALID,39,VALID,0.804688,
2009-06-01, 01:46:04,VALID,1003.94,VALID,0,VALID,94.8194,VALID,0,VALID,23.5284,VALID,87,VALID,0.617188,
2009-06-01, 01:47:04,VALID,1003.94,VALID,0,VALID,94.7812,VALID,0,VALID,23.5478,VALID,56,VALID,0.547266,
2009-06-01, 01:48:04,VALID,1004,VALID,0,VALID,94.766,VALID,0,VALID,23.5284,VALID,77,VALID,1.2957,
2009-06-01, 01:49:04,VALID,1004.04,VALID,0,VALID,94.7507,VALID,0,VALID,23.5266,VALID,43,VALID,0.828516,
2009-06-01, 01:50:04,VALID,1004.13,VALID,0,VALID,94.7278,VALID,0,VALID,23.546,VALID,102,VALID,1.17773,
2009-06-01, 01:51:04,VALID,1004.17,VALID,0,VALID,94.7278,VALID,0,VALID,23.5673,VALID,92,VALID,1.37148,
2009-06-01, 01:52:04,VALID,1004.22,VALID,0,VALID,94.7583,VALID,0,VALID,23.585,VALID,118,VALID,1.14063,
2009-06-01, 01:53:04,VALID,1004.19,VALID,0,VALID,94.7888,VALID,0,VALID,23.7035,VALID,134,VALID,1.17617,
2009-06-01, 01:54:04,VALID,1004.27,VALID,0,VALID,94.8117,VALID,0,VALID,23.7212,VALID,106,VALID,1.59687,
2009-06-01, 01:55:04,VALID,1004.28,VALID,0,VALID,94.8117,VALID,0,VALID,23.8009,VALID,99,VALID,1.76875,
2009-06-01, 01:56:04,VALID,1004.28,VALID,0,VALID,94.8117,VALID,0,VALID,23.8787,VALID,124,VALID,2.54492,
2009-06-01, 01:57:04,VALID,1004.19,VALID,0,VALID,94.7812,VALID,0,VALID,23.8982,VALID,91,VALID,2.18789,
2009-06-01, 01:58:04,VALID,1004.19,VALID,0,VALID,94.5829,VALID,0,VALID,23.8593,VALID,85,VALID,3.14258,
2009-06-01, 01:59:04,VALID,1004.19,VALID,0,VALID,93.4156,VALID,0,VALID,23.8009,VALID,117,VALID,2.20898,
2009-06-01, 02:00:04,VALID,1004.14,VALID,0,VALID,92.5765,VALID,0,VALID,23.7035,VALID,83,VALID,1.84375,
2009-06-01, 02:01:04,VALID,1004.12,VALID,0,VALID,92.0882,VALID,0,VALID,23.6239,VALID,94,VALID,1.7625,
2009-06-01, 02:02:04,VALID,1004.09,VALID,0,VALID,91.6457,VALID,0,VALID,23.5673,VALID,105,VALID,2.99219,
2009-06-01, 02:03:04,VALID,1004.05,VALID,0,VALID,90.4633,VALID,0,VALID,23.5655,VALID,83,VALID,2.24688,
2009-06-01, 02:04:04,VALID,1003.98,VALID,0,VALID,90.3946,VALID,0.100563,VALID,23.5266,VALID,84,VALID,2.01094,
2009-06-01, 02:05:04,VALID,1003.95,VALID,0,VALID,90.3717,VALID,0,VALID,23.447,VALID,93,VALID,1.81562,
2009-06-01, 02:06:04,VALID,1003.95,VALID,0,VALID,90.5472,VALID,0,VALID,23.4505,VALID,68,VALID,2.09102,
2009-06-01, 02:07:04,VALID,1003.82,VALID,0.5,VALID,90.9973,VALID,0,VALID,23.3514,VALID,10,VALID,1.5,
2009-06-01, 02:08:04,VALID,1003.77,VALID,0,VALID,91.3787,VALID,0,VALID,23.3532,VALID,19,VALID,0.954687,
2009-06-01, 02:09:04,VALID,1003.74,VALID,0,VALID,91.4321,VALID,0,VALID,23.3125,VALID,56,VALID,0.867969,
2009-06-01, 02:10:04,VALID,1003.73,VALID,0,VALID,91.7449,VALID,0,VALID,23.3143,VALID,60,VALID,0.548828,
2009-06-01, 02:11:04,VALID,1003.72,VALID,0,VALID,92.0958,VALID,0,VALID,23.2736,VALID,32,VALID,0.715234,
2009-06-01, 02:12:04,VALID,1003.65,VALID,0,VALID,92.3171,VALID,0,VALID,23.2347,VALID,89,VALID,0.746875,
2009-06-01, 02:13:04,VALID,1003.59,VALID,0,VALID,92.4468,VALID,0,VALID,23.1957,VALID,88,VALID,0.303516,
2009-06-01, 02:14:04,VALID,1003.55,VALID,0,VALID,92.3171,VALID,0,VALID,23.1568,VALID,60,VALID,1.20195,
2009-06-01, 02:15:04,VALID,1003.5,VALID,0,VALID,92.4697,VALID,0,VALID,23.178,VALID,51,VALID,0.577344,
2009-06-01, 02:16:04,VALID,1003.48,VALID,0,VALID,92.6146,VALID,0,VALID,23.1568,VALID,39,VALID,0.551172,
2009-06-01, 02:17:04,VALID,1003.47,VALID,0,VALID,92.6146,VALID,0,VALID,23.1179,VALID,65,VALID,0.685938,
2009-06-01, 02:18:04,VALID,1003.45,VALID,0,VALID,92.7443,VALID,0,VALID,23.1179,VALID,49,VALID,0.611328,
2009-06-01, 02:19:04,VALID,1003.46,VALID,0,VALID,92.6451,VALID,0,VALID,23.1391,VALID,76,VALID,0.720312,
2009-06-01, 02:20:04,VALID,1003.46,VALID,0,VALID,92.6451,VALID,0,VALID,23.1179,VALID,32,VALID,0.621484,
2009-06-01, 02:21:04,VALID,1003.47,VALID,0,VALID,92.6375,VALID,0,VALID,23.1586,VALID,29,VALID,0.438672,
2009-06-01, 02:22:04,VALID,1003.48,VALID,0,VALID,92.7138,VALID,0,VALID,23.1179,VALID,353,VALID,0.609375,
2009-06-01, 02:23:04,VALID,1003.47,VALID,0,VALID,92.6222,VALID,0,VALID,23.1197,VALID,14,VALID,1.56641,
2009-06-01, 02:24:04,VALID,1003.44,VALID,0,VALID,92.4925,VALID,0.100563,VALID,23.0967,VALID,30,VALID,0.823828,
2009-06-01, 02:25:04,VALID,1003.44,VALID,0,VALID,92.3018,VALID,0,VALID,23.1179,VALID,10,VALID,1.225,
2009-06-01, 02:26:04,VALID,1003.45,VALID,0,VALID,92.1416,VALID,0,VALID,23.1391,VALID,72,VALID,0.743359,
2009-06-01, 02:27:04,VALID,1003.45,VALID,0,VALID,92.3323,VALID,0,VALID,23.1197,VALID,91,VALID,0.315625,
2009-06-01, 02:28:04,VALID,1003.43,VALID,0,VALID,92.3247,VALID,0,VALID,23.0772,VALID,3,VALID,1.10312,
2009-06-01, 02:29:04,VALID,1003.42,VALID,0,VALID,92.3171,VALID,0,VALID,23.079,VALID,38,VALID,0.937109,
2009-06-01, 02:30:04,VALID,1003.45,VALID,0,VALID,92.2408,VALID,0,VALID,23.1197,VALID,344,VALID,0.627734,
2009-06-01, 02:31:04,VALID,1003.44,VALID,0,VALID,92.2484,VALID,0,VALID,23.1002,VALID,46,VALID,1.11758,
2009-06-01, 02:32:04,VALID,1003.42,VALID,0,VALID,92.1111,VALID,0,VALID,23.1197,VALID,41,VALID,1.58047,
2009-06-01, 02:33:04,VALID,1003.45,VALID,0,VALID,92.1874,VALID,0,VALID,23.1179,VALID,11,VALID,0.622266,
2009-06-01, 02:34:04,VALID,1003.45,VALID,0,VALID,92.1416,VALID,0,VALID,23.1179,VALID,37,VALID,0.610156,
2009-06-01, 02:35:04,VALID,1003.44,VALID,0,VALID,92.2408,VALID,0,VALID,23.1179,VALID,29,VALID,0.891797,
2009-06-01, 02:36:04,VALID,1003.43,VALID,0,VALID,92.3476,VALID,0,VALID,23.0984,VALID,37,VALID,0.696094,
2009-06-01, 02:37:04,VALID,1003.42,VALID,0,VALID,92.3018,VALID,0,VALID,23.1002,VALID,79,VALID,0.891406,
2009-06-01, 02:38:04,VALID,1003.45,VALID,0,VALID,92.195,VALID,0,VALID,23.1179,VALID,69,VALID,1.28164,
2009-06-01, 02:39:04,VALID,1003.48,VALID,0,VALID,92.0501,VALID,0,VALID,23.1568,VALID,44,VALID,0.702734,
2009-06-01, 02:40:04,VALID,1003.47,VALID,0,VALID,91.8899,VALID,0,VALID,23.1957,VALID,98,VALID,1.25117,
2009-06-01, 02:41:04,VALID,1003.49,VALID,0,VALID,91.7831,VALID,0,VALID,23.2152,VALID,46,VALID,1.04141,
2009-06-01, 02:42:04,VALID,1003.48,VALID,0,VALID,91.7144,VALID,0,VALID,23.2152,VALID,85,VALID,0.654688,
2009-06-01, 02:43:04,VALID,1003.46,VALID,0,VALID,91.7297,VALID,0,VALID,23.217,VALID,53,VALID,0.6,
2009-06-01, 02:44:04,VALID,1003.41,VALID,0,VALID,91.7907,VALID,0,VALID,23.1975,VALID,91,VALID,1.1125,
2009-06-01, 02:45:04,VALID,1003.39,VALID,0,VALID,91.8899,VALID,0,VALID,23.1763,VALID,35,VALID,0.336328,
2009-06-01, 02:46:04,VALID,1003.37,VALID,0,VALID,91.9204,VALID,0,VALID,23.1568,VALID,12,VALID,0.714844,
2009-06-01, 02:47:04,VALID,1003.34,VALID,0,VALID,91.8365,VALID,0,VALID,23.1957,VALID,82,VALID,0.914844,
2009-06-01, 02:48:04,VALID,1003.34,VALID,0,VALID,91.8517,VALID,0,VALID,23.1957,VALID,79,VALID,0.580469,
2009-06-01, 02:49:04,VALID,1003.32,VALID,0,VALID,91.8899,VALID,0,VALID,23.1957,VALID,80,VALID,0.639453,
2009-06-01, 02:50:04,VALID,1003.32,VALID,0,VALID,91.928,VALID,0,VALID,23.1763,VALID,75,VALID,0.763672,
2009-06-01, 02:51:04,VALID,1003.29,VALID,0,VALID,91.9433,VALID,0,VALID,23.1957,VALID,62,VALID,0.704687,
2009-06-01, 02:52:04,VALID,1003.31,VALID,0,VALID,91.989,VALID,0,VALID,23.1957,VALID,54,VALID,0.552734,
2009-06-01, 02:53:04,VALID,1003.3,VALID,0,VALID,92.0043,VALID,0,VALID,23.1957,VALID,26,VALID,0.649219,
2009-06-01, 02:54:04,VALID,1003.31,VALID,0,VALID,92.0424,VALID,0,VALID,23.1957,VALID,33,VALID,0.342187,
2009-06-01, 02:55:04,VALID,1003.3,VALID,0,VALID,91.9585,VALID,0,VALID,23.2364,VALID,63,VALID,0.411719,
2009-06-01, 02:56:04,VALID,1003.33,VALID,0,VALID,92.0043,VALID,0,VALID,23.2364,VALID,51,VALID,0.514063,
2009-06-01, 02:57:04,VALID,1003.33,VALID,0,VALID,91.9509,VALID,0,VALID,23.2152,VALID,71,VALID,0.451953,
2009-06-01, 02:58:04,VALID,1003.34,VALID,0,VALID,91.9356,VALID,0.100563,VALID,23.2347,VALID,93,VALID,1.0418,
2009-06-01, 02:59:04,VALID,1003.34,VALID,0,VALID,91.722,VALID,0.100563,VALID,23.2736,VALID,83,VALID,1.05313,
2009-06-01, 03:00:04,VALID,1003.34,VALID,0,VALID,91.6763,VALID,0,VALID,23.2931,VALID,93,VALID,0.815625,
2009-06-01, 03:01:04,VALID,1003.36,VALID,0,VALID,91.6534,VALID,0.100563,VALID,23.2931,VALID,39,VALID,1.09023,
2009-06-01, 03:02:04,VALID,1003.37,VALID,0,VALID,91.6,VALID,0,VALID,23.3143,VALID,46,VALID,0.255078,
2009-06-01, 03:03:04,VALID,1003.35,VALID,0,VALID,91.4703,VALID,0,VALID,23.3337,VALID,92,VALID,0.885156,
2009-06-01, 03:04:04,VALID,1003.38,VALID,0,VALID,91.4474,VALID,0,VALID,23.332,VALID,89,VALID,0.769531,
2009-06-01, 03:05:04,VALID,1003.35,VALID,0,VALID,91.4245,VALID,0,VALID,23.3532,VALID,74,VALID,0.728516,
2009-06-01, 03:06:04,VALID,1003.38,VALID,0,VALID,91.3253,VALID,0,VALID,23.332,VALID,76,VALID,0.880469,
2009-06-01, 03:07:04,VALID,1003.36,VALID,0,VALID,91.3177,VALID,0,VALID,23.3532,VALID,96,VALID,0.850781,
2009-06-01, 03:08:04,VALID,1003.33,VALID,0,VALID,91.3711,VALID,0.100563,VALID,23.332,VALID,99,VALID,0.978125,
2009-06-01, 03:09:04,VALID,1003.34,VALID,0,VALID,91.4474,VALID,0,VALID,23.332,VALID,89,VALID,0.651563,
2009-06-01, 03:10:04,VALID,1003.37,VALID,0,VALID,91.5542,VALID,0,VALID,23.3107,VALID,83,VALID,0.746875,
2009-06-01, 03:11:04,VALID,1003.33,VALID,0,VALID,91.6,VALID,0,VALID,23.332,VALID,78,VALID,0.566016,
2009-06-01, 03:12:04,VALID,1003.32,VALID,0,VALID,91.6381,VALID,0,VALID,23.332,VALID,74,VALID,0.794141,
2009-06-01, 03:13:04,VALID,1003.34,VALID,0,VALID,91.7831,VALID,0,VALID,23.3514,VALID,49,VALID,0.216797,
2009-06-01, 03:14:04,VALID,1003.3,VALID,0,VALID,91.8822,VALID,0,VALID,23.3532,VALID,87,VALID,0.724219,
2009-06-01, 03:15:04,VALID,1003.27,VALID,0,VALID,91.8822,VALID,0.100563,VALID,23.3904,VALID,54,VALID,1.375,
2009-06-01, 03:16:04,VALID,1003.26,VALID,0,VALID,91.8059,VALID,0,VALID,23.408,VALID,80,VALID,0.944531,
2009-06-01, 03:17:04,VALID,1003.27,VALID,0,VALID,91.7525,VALID,0,VALID,23.4487,VALID,30,VALID,0.455469,
2009-06-01, 03:18:04,VALID,1003.22,VALID,0,VALID,91.6991,VALID,0,VALID,23.4682,VALID,80,VALID,1.08789,
2009-06-01, 03:19:04,VALID,1003.19,VALID,0,VALID,91.6152,VALID,0,VALID,23.4877,VALID,57,VALID,0.615625,
2009-06-01, 03:20:04,VALID,1003.16,VALID,0,VALID,91.4932,VALID,0,VALID,23.5266,VALID,101,VALID,0.949219,
2009-06-01, 03:21:04,VALID,1003.14,VALID,0,VALID,91.394,VALID,0.100563,VALID,23.5655,VALID,48,VALID,0.859375,
2009-06-01, 03:22:04,VALID,1003.17,VALID,0,VALID,91.3253,VALID,0,VALID,23.5655,VALID,70,VALID,0.764453,
2009-06-01, 03:23:04,VALID,1003.16,VALID,0,VALID,91.3711,VALID,0.100563,VALID,23.585,VALID,81,VALID,0.885938,
2009-06-01, 03:24:04,VALID,1003.15,VALID,0,VALID,91.3177,VALID,0,VALID,23.6239,VALID,77,VALID,1.25781,
2009-06-01, 03:25:04,VALID,1003.15,VALID,0,VALID,91.2109,VALID,0,VALID,23.6434,VALID,78,VALID,1.64102,
2009-06-01, 03:26:04,VALID,1003.18,VALID,0,VALID,91.2948,VALID,0,VALID,23.6823,VALID,42,VALID,0.458984,
2009-06-01, 03:27:04,VALID,1003.2,VALID,0,VALID,91.3177,VALID,0,VALID,23.6823,VALID,30,VALID,0.718359,
2009-06-01, 03:28:04,VALID,1003.2,VALID,0,VALID,91.1651,VALID,0,VALID,23.7601,VALID,345,VALID,0.798437,
2009-06-01, 03:29:04,VALID,1003.22,VALID,0,VALID,91.127,VALID,0,VALID,23.7991,VALID,30,VALID,0.323438,
2009-06-01, 03:30:04,VALID,1003.22,VALID,0,VALID,91.0659,VALID,0,VALID,23.8575,VALID,54,VALID,1.58164,
2009-06-01, 03:31:04,VALID,1003.25,VALID,0,VALID,90.8829,VALID,0,VALID,23.9353,VALID,55,VALID,0.972266,
2009-06-01, 03:32:04,VALID,1003.27,VALID,0,VALID,90.6311,VALID,0.100563,VALID,24.0132,VALID,47,VALID,0.992578,
2009-06-01, 03:33:04,VALID,1003.27,VALID,0,VALID,90.4862,VALID,0,VALID,24.0734,VALID,62,VALID,0.934766,
2009-06-01, 03:34:04,VALID,1003.27,VALID,0,VALID,90.5319,VALID,0.100563,VALID,24.0716,VALID,16,VALID,1.22383,
2009-06-01, 03:35:04,VALID,1003.25,VALID,0,VALID,90.5853,VALID,0,VALID,24.0929,VALID,69,VALID,0.526563,
2009-06-01, 03:36:04,VALID,1003.28,VALID,0,VALID,90.715,VALID,0,VALID,24.0929,VALID,23,VALID,0.370313,
2009-06-01, 03:37:04,VALID,1003.28,VALID,0,VALID,90.7532,VALID,0,VALID,24.0521,VALID,37,VALID,0.725391,
2009-06-01, 03:38:04,VALID,1003.31,VALID,0,VALID,90.715,VALID,0,VALID,24.0521,VALID,18,VALID,1.02617,
2009-06-01, 03:39:04,VALID,1003.33,VALID,0,VALID,90.654,VALID,0,VALID,24.091,VALID,30,VALID,0.56875,
2009-06-01, 03:40:04,VALID,1003.38,VALID,0,VALID,90.509,VALID,0,VALID,24.091,VALID,59,VALID,1.51758,
2009-06-01, 03:41:04,VALID,1003.34,VALID,0,VALID,90.2115,VALID,0.100563,VALID,24.1707,VALID,38,VALID,1.62812,
2009-06-01, 03:42:04,VALID,1003.35,VALID,0,VALID,90.2191,VALID,0,VALID,24.2078,VALID,28,VALID,0.842578,
2009-06-01, 03:43:04,VALID,1003.42,VALID,0,VALID,90.1429,VALID,0,VALID,24.2486,VALID,69,VALID,0.962109,
2009-06-01, 03:44:04,VALID,1003.49,VALID,0,VALID,90.2497,VALID,0.100563,VALID,24.2273,VALID,52,VALID,0.527344,